STARLINK-31902, 59666

Orbit data source: Space-Track

STARLINK-31902, 59666 is a payload satellite owned by SpaceX/Seattle (US) in LEO that was launched on Mon, 06 May 2024 UTC via an FALCON 9 launch vehicle from the Air Force Eastern Test Range (AFETR). Payload-class satellites include a variety of spacecraft equipped with specific instruments for various scientific and technological missions. These include communications satellites like Starlink; space stations such as the ISS; scientific satellites like the Hubble; Earth observation satellites from companies like Planet Labs, Umbra, and HawkEye 360; GPS; miniature CubeSats for education and research; and military/defense satellites.

Loading next visibility...
Identifier
59666, 2024-084N
Orbit
LEO
Country
Flag of USUS
Related business
Manufacturer
SpaceX/Seattle
Mission
Operational spacecraft
Bus & Motor
STARLINK V2M, Unknown motor
Mass
730 kg wet, ~700 kg dry
Launch date (UTC)
2024-05-06 (1 year ago)
Launch vehicle
FALCON 9
Launch site
Air Force Eastern Test Range (AFETR)
Object type
Payload
Rocket body
Debris
Shape & HBR
Unknown
Radar Cross Section
Large (>1 m²)

Expand to show TLE details & history
Last TLE update: 15 hours ago

TLE from 15 hours ago
0 STARLINK-31902
1 59666U 24084N   25241.93373963 -.00000056  00000-0  74749-5 0  9995
2 59666  42.9979  44.9818 0000635 269.3147  90.7632 15.27572717 75041
Epoch: 2025-08-29T22:24Z
TLE epoch observation values (Epoch: 2025-08-29T22:24:35.104Z)
Latitude
0.00001°
Longitude
90.46027°
Altitude
482.852 km
Speed
7.626 km/s
True Right ascension
02h 59m 55s
True Declination
0° 00' 00"
Sunlit
Object was in full shadow at epoch
Visualization orbit readout
Latitude
Unknown
Longitude
Unknown
Altitude
Unknown
Speed
Unknown
Apparent Right ascension
Unknown
Apparent Declination
Unknown
Sunlit
N/A
Visualization observer readout
Local Sidereal Time
05:18:22
Azimuth
Unknown
Elevation
Unknown
Doppler factor
Unknown
Orbital elements
Apogee altitude
485.452 km
Perigee altitude
484.581 km
Semi-major axis
6,863.153 km
Eccentricity
0.00006
Inclination
42.9979°
RAAN
44.9818°
Arg. of periapsis
269.3147°
True anomaly
90.77048°
Mean anomaly
90.7632°
Eccentric anomaly
90.76684°
Mean motion
3.81731 °/min
Orbital period
94.31 mins
BSTAR
0.0000074749
Loading maneuver chart data...
Computing Atmospheric mass density...
Loading historical data...
Loading historical data...
Loading historical data...
Loading historical data...
Loading historical data...
Loading historical data...
Loading historical data...

Documentation

Showing up to 5 results
|